Back to catalog

CZ-4 DEB

AliveSSO
NORAD 27677·DEBRIS·🇨🇳 China

Launched Oct 14, 1999 from Taiyuan Satellite Launch Center

Loading…

Next Passes (next 24 hours)

TLE

FreshSource: Space-Track

Epoch: Sep 14, 2026, 03:15 UTC

1 27677U 99057MR  26257.13579605  .00000255  00000-0  79567-4 0  9997
2 27677  98.5694 314.6386 0074066 176.8010 212.3821 14.47765947282767

Track CZ-4 DEB in real time with AllMySat

Download on the App Store